Time,TemperatureF,DewpointF,PressureIn,WindDirection,WindDirectionDegrees,WindSpeedMPH,WindSpeedGustMPH,Humidity,HourlyPrecipIn,Conditions,Clouds,dailyrainin,SolarRadiationWatts/m^2,SoftwareType,DateUTC
2013-02-19 00:02:00,35.0,19.0,-100.00,SSW,213,7.0,16.0,52,0.00,,,0.00,0.000000,,2013-02-19 05:02:00,
2013-02-19 00:32:00,35.0,21.0,-100.00,SW,217,6.0,14.0,56,0.00,,,0.00,0.000000,,2013-02-19 05:32:00,
2013-02-19 00:43:00,35.0,21.0,-100.00,SW,217,6.0,14.0,56,0.00,,,0.00,0.000000,,2013-02-19 05:43:00,
2013-02-19 00:52:00,35.0,21.0,-100.00,SW,217,6.0,14.0,56,0.00,,,0.00,0.000000,,2013-02-19 05:52:00,
2013-02-19 01:03:00,35.0,21.0,-100.00,SW,217,6.0,14.0,56,0.00,,,0.00,0.000000,,2013-02-19 06:03:00,
2013-02-19 01:33:00,35.0,20.0,-100.00,SSW,196,7.0,17.0,54,0.00,,,-99.99,0.000000,,2013-02-19 06:33:00,
2013-02-19 01:42:00,35.0,20.0,-100.00,SSW,196,7.0,17.0,54,0.00,,,-99.99,0.000000,,2013-02-19 06:42:00,
2013-02-19 01:53:00,35.0,20.0,-100.00,SSW,196,7.0,17.0,54,0.00,,,-99.99,0.000000,,2013-02-19 06:53:00,
2013-02-19 02:02:00,35.0,20.0,-100.00,SSW,196,7.0,17.0,54,0.00,,,-99.99,0.000000,,2013-02-19 07:02:00,
2013-02-19 02:32:00,35.0,18.0,-100.00,SSW,201,8.0,22.0,50,0.00,,,0.00,0.000000,,2013-02-19 07:32:00,
2013-02-19 02:42:00,35.0,18.0,-100.00,SSW,201,8.0,22.0,50,0.00,,,0.00,0.000000,,2013-02-19 07:42:00,
2013-02-19 02:52:00,35.0,18.0,-100.00,SSW,201,8.0,22.0,50,0.00,,,0.00,0.000000,,2013-02-19 07:52:00,
2013-02-19 03:02:00,35.0,18.0,-100.00,SSW,201,8.0,22.0,50,0.00,,,0.00,0.000000,,2013-02-19 08:02:00,
2013-02-19 03:32:00,35.0,19.0,-100.00,SSW,204,9.0,22.0,51,0.00,,,0.00,0.000000,,2013-02-19 08:32:00,
2013-02-19 03:42:00,35.0,19.0,-100.00,SSW,204,9.0,22.0,51,0.00,,,0.00,0.000000,,2013-02-19 08:42:00,
2013-02-19 03:52:00,35.0,19.0,-100.00,SSW,204,9.0,22.0,51,0.00,,,0.00,0.000000,,2013-02-19 08:52:00,
2013-02-19 04:02:00,35.0,19.0,-100.00,SSW,204,9.0,22.0,51,0.00,,,0.00,0.000000,,2013-02-19 09:02:00,
2013-02-19 04:32:00,35.0,18.0,-100.00,SW,214,9.0,22.0,50,0.00,,,0.00,0.000000,,2013-02-19 09:32:00,
2013-02-19 04:42:00,35.0,18.0,-100.00,SW,214,9.0,22.0,50,0.00,,,0.00,0.000000,,2013-02-19 09:42:00,
2013-02-19 04:53:00,35.0,18.0,-100.00,SW,214,9.0,22.0,50,0.00,,,0.00,0.000000,,2013-02-19 09:53:00,
2013-02-19 05:02:00,35.0,18.0,-100.00,SW,214,9.0,22.0,50,0.00,,,0.00,0.000000,,2013-02-19 10:02:00,
2013-02-19 05:32:00,36.0,23.0,-100.00,SW,221,8.0,18.0,59,0.00,,,0.00,0.000000,,2013-02-19 10:32:00,
2013-02-19 05:42:00,36.0,23.0,-100.00,SW,221,8.0,18.0,59,0.00,,,0.00,0.000000,,2013-02-19 10:42:00,
2013-02-19 05:52:00,36.0,23.0,-100.00,SW,221,8.0,18.0,59,0.00,,,0.00,0.000000,,2013-02-19 10:52:00,
2013-02-19 06:01:00,36.0,23.0,-100.00,SW,221,8.0,18.0,59,0.00,,,0.00,0.000000,,2013-02-19 11:01:00,
2013-02-19 06:32:00,32.0,31.0,-100.00,SW,215,7.0,23.0,96,0.00,,,0.00,0.000000,,2013-02-19 11:32:00,
2013-02-19 06:42:00,32.0,31.0,-100.00,SW,215,7.0,23.0,96,0.00,,,0.00,0.000000,,2013-02-19 11:42:00,
2013-02-19 06:52:00,32.0,31.0,-100.00,SW,215,7.0,23.0,96,0.00,,,0.00,0.000000,,2013-02-19 11:52:00,
2013-02-19 07:02:00,32.0,31.0,-100.00,SW,215,7.0,23.0,96,0.00,,,0.00,0.000000,,2013-02-19 12:02:00,
2013-02-19 07:32:00,32.0,31.0,-100.00,SW,227,7.0,15.0,97,0.00,,,0.00,0.000000,,2013-02-19 12:32:00,
2013-02-19 07:42:00,32.0,31.0,-100.00,SW,227,7.0,15.0,97,0.00,,,0.00,0.000000,,2013-02-19 12:42:00,
2013-02-19 07:53:00,32.0,31.0,-100.00,SW,227,7.0,15.0,97,0.00,,,0.00,0.000000,,2013-02-19 12:53:00,
2013-02-19 08:02:00,32.0,31.0,-100.00,SW,227,7.0,15.0,97,0.00,,,0.00,0.000000,,2013-02-19 13:02:00,
2013-02-19 08:32:00,34.0,33.0,-100.00,WSW,237,7.0,17.0,97,0.00,,,0.00,18.000000,,2013-02-19 13:32:00,
2013-02-19 08:42:00,34.0,33.0,-100.00,WSW,237,7.0,17.0,97,0.00,,,0.00,18.000000,,2013-02-19 13:42:00,
2013-02-19 08:52:00,34.0,33.0,-100.00,WSW,237,7.0,17.0,97,0.00,,,0.00,18.000000,,2013-02-19 13:52:00,
2013-02-19 09:02:00,34.0,33.0,-100.00,WSW,237,7.0,17.0,97,0.00,,,0.00,18.000000,,2013-02-19 14:02:00,
2013-02-19 09:33:00,36.0,35.0,-100.00,North,11,3.0,14.0,95,0.00,,,0.00,80.000000,,2013-02-19 14:33:00,
2013-02-19 09:42:00,36.0,35.0,-100.00,North,11,3.0,14.0,95,0.00,,,0.00,80.000000,,2013-02-19 14:42:00,
2013-02-19 09:52:00,36.0,35.0,-100.00,North,11,3.0,14.0,95,0.00,,,0.00,80.000000,,2013-02-19 14:52:00,
2013-02-19 10:02:00,36.0,35.0,-100.00,North,11,3.0,14.0,95,0.00,,,0.00,80.000000,,2013-02-19 15:02:00,
2013-02-19 10:22:00,37.0,35.0,-100.00,NW,304,3.0,12.0,94,0.16,,,0.16,157.000000,,2013-02-19 15:22:00,
2013-02-19 10:32:00,37.0,35.0,-100.00,NW,304,3.0,12.0,94,0.16,,,0.16,157.000000,,2013-02-19 15:32:00,
2013-02-19 10:42:00,37.0,35.0,-100.00,NW,304,3.0,12.0,94,0.16,,,0.16,157.000000,,2013-02-19 15:42:00,
2013-02-19 10:52:00,37.0,35.0,-100.00,NW,304,3.0,12.0,94,0.16,,,0.16,157.000000,,2013-02-19 15:52:00,
2013-02-19 11:02:00,37.0,35.0,-100.00,NW,304,3.0,12.0,94,0.16,,,0.16,157.000000,,2013-02-19 16:02:00,
2013-02-19 12:32:00,47.0,35.0,-100.00,SW,232,8.0,22.0,62,-99.99,,,0.22,440.000000,,2013-02-19 17:32:00,
2013-02-19 12:42:00,47.0,35.0,-100.00,SW,232,8.0,22.0,62,-99.99,,,0.22,440.000000,,2013-02-19 17:42:00,
2013-02-19 12:52:00,47.0,35.0,-100.00,SW,232,8.0,22.0,62,-99.99,,,0.22,440.000000,,2013-02-19 17:52:00,
2013-02-19 13:02:00,47.0,35.0,-100.00,SW,232,8.0,22.0,62,-99.99,,,0.22,440.000000,,2013-02-19 18:02:00,
2013-02-19 13:21:00,48.0,31.0,-100.00,South,187,6.0,21.0,51,0.00,,,0.22,719.000000,,2013-02-19 18:21:00,
2013-02-19 13:32:00,48.0,31.0,-100.00,South,187,6.0,21.0,51,0.00,,,0.22,719.000000,,2013-02-19 18:32:00,
2013-02-19 13:42:00,48.0,31.0,-100.00,South,187,6.0,21.0,51,0.00,,,0.22,719.000000,,2013-02-19 18:42:00,
2013-02-19 13:52:00,48.0,31.0,-100.00,South,187,6.0,21.0,51,0.00,,,0.22,719.000000,,2013-02-19 18:52:00,
2013-02-19 14:01:00,48.0,31.0,-100.00,South,187,6.0,21.0,51,0.00,,,0.22,719.000000,,2013-02-19 19:01:00,
2013-02-19 14:32:00,49.0,23.0,-100.00,SW,228,7.0,23.0,35,0.00,,,0.22,781.000000,,2013-02-19 19:32:00,
2013-02-19 14:42:00,49.0,23.0,-100.00,SW,228,7.0,23.0,35,0.00,,,0.22,781.000000,,2013-02-19 19:42:00,
2013-02-19 14:52:00,49.0,23.0,-100.00,SW,228,7.0,23.0,35,0.00,,,0.22,781.000000,,2013-02-19 19:52:00,
2013-02-19 15:02:00,49.0,23.0,-100.00,SW,228,7.0,23.0,35,0.00,,,0.22,781.000000,,2013-02-19 20:02:00,
2013-02-19 15:22:00,48.0,20.0,-100.00,SE,143,6.0,26.0,33,0.00,,,-99.99,671.000000,,2013-02-19 20:22:00,
2013-02-19 15:32:00,48.0,20.0,-100.00,SE,143,6.0,26.0,33,0.00,,,-99.99,671.000000,,2013-02-19 20:32:00,
2013-02-19 15:42:00,48.0,20.0,-100.00,SE,143,6.0,26.0,33,0.00,,,-99.99,671.000000,,2013-02-19 20:42:00,
2013-02-19 15:52:00,48.0,20.0,-100.00,SE,143,6.0,26.0,33,0.00,,,-99.99,671.000000,,2013-02-19 20:52:00,
2013-02-19 16:02:00,48.0,20.0,-100.00,SE,143,6.0,26.0,33,0.00,,,-99.99,671.000000,,2013-02-19 21:02:00,
2013-02-19 16:32:00,47.0,20.0,-100.00,NNE,31,9.0,24.0,34,0.00,,,0.22,527.000000,,2013-02-19 21:32:00,
2013-02-19 16:42:00,47.0,20.0,-100.00,NNE,31,9.0,24.0,34,0.00,,,0.22,527.000000,,2013-02-19 21:42:00,
2013-02-19 16:52:00,47.0,20.0,-100.00,NNE,31,9.0,24.0,34,0.00,,,0.22,527.000000,,2013-02-19 21:52:00,
2013-02-19 17:02:00,47.0,20.0,-100.00,NNE,31,9.0,24.0,34,0.00,,,0.22,527.000000,,2013-02-19 22:02:00,
2013-02-19 17:32:00,44.0,16.0,-100.00,SSW,199,7.0,21.0,32,0.00,,,0.22,230.000000,,2013-02-19 22:32:00,
2013-02-19 17:42:00,44.0,16.0,-100.00,SSW,199,7.0,21.0,32,0.00,,,0.22,230.000000,,2013-02-19 22:42:00,
2013-02-19 17:52:00,44.0,16.0,-100.00,SSW,199,7.0,21.0,32,0.00,,,0.22,230.000000,,2013-02-19 22:52:00,
2013-02-19 18:01:00,44.0,16.0,-100.00,SSW,199,7.0,21.0,32,0.00,,,0.22,230.000000,,2013-02-19 23:01:00,
2013-02-19 18:32:00,40.0,16.0,-100.00,ENE,70,8.0,15.0,38,0.00,,,0.22,23.000000,,2013-02-19 23:32:00,
2013-02-19 18:42:00,40.0,16.0,-100.00,ENE,70,8.0,15.0,38,0.00,,,0.22,23.000000,,2013-02-19 23:42:00,
2013-02-19 18:52:00,40.0,16.0,-100.00,ENE,70,8.0,15.0,38,0.00,,,0.22,23.000000,,2013-02-19 23:52:00,
2013-02-19 19:01:00,40.0,16.0,-100.00,ENE,70,8.0,15.0,38,0.00,,,0.22,23.000000,,2013-02-20 00:01:00,
2013-02-19 19:32:00,38.0,13.0,-100.00,SSE,148,4.0,26.0,36,0.00,,,0.22,2.000000,,2013-02-20 00:32:00,
2013-02-19 19:42:00,38.0,13.0,-100.00,SSE,148,4.0,26.0,36,0.00,,,0.22,2.000000,,2013-02-20 00:42:00,
2013-02-19 19:52:00,38.0,13.0,-100.00,SSE,148,4.0,26.0,36,0.00,,,0.22,2.000000,,2013-02-20 00:52:00,
2013-02-19 20:02:00,38.0,13.0,-100.00,SSE,148,4.0,26.0,36,0.00,,,0.22,2.000000,,2013-02-20 01:02:00,
2013-02-19 20:32:00,37.0,9.0,-100.00,NNE,25,5.0,19.0,31,0.00,,,0.22,0.000000,,2013-02-20 01:32:00,
2013-02-19 20:42:00,37.0,9.0,-100.00,NNE,25,5.0,19.0,31,0.00,,,0.22,0.000000,,2013-02-20 01:42:00,
2013-02-19 20:52:00,37.0,9.0,-100.00,NNE,25,5.0,19.0,31,0.00,,,0.22,0.000000,,2013-02-20 01:52:00,
2013-02-19 21:02:00,37.0,9.0,-100.00,NNE,25,5.0,19.0,31,0.00,,,0.22,0.000000,,2013-02-20 02:02:00,
2013-02-19 21:22:00,35.0,7.0,-100.00,East,83,8.0,18.0,31,0.00,,,0.22,0.000000,,2013-02-20 02:22:00,
2013-02-19 21:32:00,35.0,7.0,-100.00,East,83,8.0,18.0,31,0.00,,,0.22,0.000000,,2013-02-20 02:32:00,
2013-02-19 21:42:00,35.0,7.0,-100.00,East,83,8.0,18.0,31,0.00,,,0.22,0.000000,,2013-02-20 02:42:00,
2013-02-19 21:52:00,35.0,7.0,-100.00,East,83,8.0,18.0,31,0.00,,,0.22,0.000000,,2013-02-20 02:52:00,
2013-02-19 22:02:00,35.0,7.0,-100.00,East,83,8.0,18.0,31,0.00,,,0.22,0.000000,,2013-02-20 03:02:00,
2013-02-19 22:22:00,34.0,8.0,-100.00,ENE,78,11.0,24.0,33,0.00,,,0.22,0.000000,,2013-02-20 03:22:00,
2013-02-19 22:32:00,34.0,8.0,-100.00,ENE,78,11.0,24.0,33,0.00,,,0.22,0.000000,,2013-02-20 03:32:00,
2013-02-19 22:42:00,34.0,8.0,-100.00,ENE,78,11.0,24.0,33,0.00,,,0.22,0.000000,,2013-02-20 03:42:00,
2013-02-19 22:52:00,34.0,8.0,-100.00,ENE,78,11.0,24.0,33,0.00,,,0.22,0.000000,,2013-02-20 03:52:00,
2013-02-19 23:01:00,34.0,8.0,-100.00,ENE,78,11.0,24.0,33,0.00,,,0.22,0.000000,,2013-02-20 04:01:00,
2013-02-19 23:32:00,33.0,4.0,-100.00,SE,133,8.0,25.0,29,0.00,,,0.22,0.000000,,2013-02-20 04:32:00,
2013-02-19 23:42:00,33.0,4.0,-100.00,SE,133,8.0,25.0,29,0.00,,,0.22,0.000000,,2013-02-20 04:42:00,
2013-02-19 23:52:00,33.0,4.0,-100.00,SE,133,8.0,25.0,29,0.00,,,0.22,0.000000,,2013-02-20 04:52:00,